Lapse_Rate
5.8 5.5 5.2 5.3 5.4 5.6 5.7 5.6 5.9 5.6 5.3 5.8 6.0 6.1 5.9 6.2 6.2 6.4 6.4 6.4 6.5 6.4 6.2 6.2 6.2 6.2 6.0 6.4 6.5 6.8 6.8 6.9 7.0 7.1 7.2 7.3 7.4 7.4 7.5 7.6 7.6 7.7 7.8 7.9
5.4 5.2 5.6 5.6 5.6 5.5 5.6 5.6 5.7 4.9 5.4 5.4 5.7 6.1 6.5 6.0 6.9 6.6 6.3 6.3 6.3 6.3 6.5 6.1 6.0 5.9 5.9 6.1 6.6 6.7 6.8 6.9 7.0 7.1 7.1 7.2 7.4 7.4 7.5 7.5 7.5 7.6 7.7 7.7
5.2 5.4 5.4 5.3 5.4 5.4 4.8 4.6 4.8 4.6 5.2 5.2 5.1 5.8 6.7 6.8 6.6 7.1 6.8 6.6 6.1 6.1 6.3 6.1 5.5 5.6 5.9 6.4 6.6 6.7 6.7 6.8 6.9 6.9 7.0 7.1 7.3 7.4 7.3 7.3 7.3 7.2 7.1 7.0
5.0 5.1 5.1 5.0 4.9 5.0 4.5 4.9 4.4 4.6 4.4 4.2 4.9 4.1 6.4 6.9 7.0 7.0 7.5 7.5 6.7 6.5 5.9 5.6 5.5 5.7 6.2 6.3 6.4 6.3 6.4 6.5 6.6 6.6 6.8 7.1 7.2 7.2 7.0 7.0 6.8 6.4 6.2 5.9
5.0 5.1 5.1 4.9 4.8 4.5 4.8 4.7 4.6 4.5 4.2 4.3 4.7 4.6 5.1 6.5 6.7 7.1 7.1 7.2 6.3 5.7 5.2 5.1 5.4 5.8 6.2 6.2 6.1 6.1 6.1 6.2 6.4 6.6 6.9 7.1 7.1 7.0 6.9 6.4 5.9 5.3 5.0 4.5
5.1 5.0 5.0 4.9 4.8 4.4 4.3 4.0 4.4 4.1 3.7 2.9 4.7 5.2 5.4 6.2 6.7 6.9 6.7 6.4 5.8 4.5 4.7 5.2 5.8 5.9 5.9 5.8 5.8 5.9 6.0 6.2 6.4 6.6 6.7 6.9 6.8 6.5 6.0 5.2 4.7 4.3 4.0 3.6
5.0 5.2 5.1 5.0 4.9 4.6 4.2 4.3 4.4 3.8 2.9 3.7 4.2 4.1 5.5 5.6 5.8 6.1 6.2 5.8 4.6 4.6 5.2 5.5 5.7 5.6 5.5 5.6 5.6 5.6 5.8 6.0 6.3 6.4 6.5 6.4 6.1 5.6 4.9 4.2 3.8 3.6 3.4 3.0
4.8 5.2 5.1 5.1 5.0 4.7 4.5 4.3 4.4 4.8 4.8 4.1 4.3 3.6 5.7 5.7 5.8 5.8 5.0 4.6 4.8 5.1 5.4 5.5 5.4 5.4 5.4 5.4 5.4 5.4 5.6 5.8 6.0 6.0 6.0 5.7 5.3 4.7 3.9 3.5 3.2 2.9 2.8 2.7
4.9 5.4 5.3 5.1 4.8 4.6 4.1 4.1 4.2 4.2 4.6 3.5 5.8 5.9 6.0 5.8 5.7 5.5 5.2 5.0 5.1 5.3 5.3 5.4 5.3 5.2 5.1 5.1 5.1 5.1 5.2 5.5 5.6 5.6 5.4 5.1 4.6 3.8 3.4 3.1 2.9 2.7 2.7 2.6
5.0 4.5 5.2 5.2 5.1 4.8 4.6 4.5 4.1 4.2 4.9 4.4 5.4 6.0 6.3 6.2 6.0 5.7 5.4 5.2 5.3 5.3 5.3 5.3 5.1 5.0 4.9 4.8 4.7 4.7 5.0 5.1 5.1 5.2 4.9 4.6 4.0 3.4 3.1 3.0 2.9 3.0 2.9 3.5
5.0 4.5 4.9 5.1 5.3 5.3 4.8 4.4 4.6 4.6 4.7 4.8 3.8 5.8 6.2 6.4 6.5 6.1 5.5 5.4 5.5 5.5 5.2 5.0 4.7 4.6 4.6 4.7 4.5 4.5 4.7 4.8 4.8 4.8 4.5 4.1 3.5 3.2 3.1 3.0 3.0 3.4 4.1 4.8
5.0 4.7 4.5 5.1 5.3 5.0 4.8 4.6 4.7 5.0 4.7 4.4 3.9 5.0 6.6 6.6 6.5 6.2 5.4 5.4 5.2 5.0 5.1 5.0 4.7 4.5 4.4 4.4 4.4 4.4 4.5 4.4 4.5 4.2 4.1 3.7 3.3 3.2 3.1 3.0 3.5 4.3 5.4 6.0
4.9 4.7 4.6 5.3 5.1 5.0 5.0 5.3 5.0 5.0 4.8 4.3 5.1 5.5 6.4 6.4 6.1 5.5 5.2 5.0 4.8 5.2 4.9 4.5 4.1 4.3 4.3 4.2 4.2 4.3 4.1 4.1 4.0 3.9 3.7 3.4 3.3 3.2 3.0 3.3 4.5 5.3 6.0 6.2
4.8 4.7 5.0 4.8 6.2 5.5 4.8 5.1 5.2 5.2 4.2 5.1 4.8 5.6 6.3 6.3 5.6 5.2 4.8 4.4 4.8 4.9 4.7 4.2 4.2 4.3 4.1 3.9 4.0 4.0 3.8 3.8 3.9 3.6 3.5 3.3 3.3 3.2 3.2 4.2 5.1 5.9 6.1 5.9
5.0 4.8 5.1 5.1 5.2 5.2 5.2 5.2 4.8 4.8 5.1 5.0 5.1 5.3 5.9 5.4 4.9 4.9 4.8 4.4 4.5 5.0 4.8 4.2 4.1 4.2 4.0 3.9 3.8 3.7 3.6 3.6 3.6 3.4 3.4 3.3 3.2 3.2 3.5 4.8 5.7 6.1 5.4 5.4
5.4 4.9 4.9 4.8 5.1 5.3 4.8 5.0 5.6 5.2 5.1 5.0 5.0 5.0 5.7 5.4 5.1 4.8 4.7 4.5 4.4 4.6 4.5 4.2 4.3 4.2 4.1 3.8 3.8 3.5 3.4 3.4 3.4 3.2 3.3 3.3 3.1 3.1 4.0 5.2 5.9 6.0 5.4 5.1
5.7 5.4 5.3 5.0 5.8 5.4 5.3 6.2 5.8 5.8 5.9 5.7 5.3 6.1 5.3 5.3 5.2 5.1 4.7 4.6 4.5 4.5 4.4 4.2 4.1 4.1 4.3 3.9 3.7 3.5 3.3 3.2 3.2 3.1 3.2 3.1 3.0 3.1 4.3 5.7 5.8 5.7 5.1 4.8
6.4 6.5 6.7 6.0 6.1 5.0 6.2 6.2 5.9 6.0 6.1 5.9 5.5 5.9 5.2 5.2 4.8 4.9 4.7 4.7 4.7 4.6 4.6 4.5 4.2 4.2 4.2 4.1 3.6 3.4 3.2 3.1 3.2 2.9 3.1 3.1 2.9 3.1 4.4 5.6 5.6 5.6 5.2 4.9
7.7 7.4 7.0 7.1 7.3 7.3 7.6 6.6 6.2 6.0 6.2 5.9 6.3 5.9 5.7 5.5 5.1 5.0 4.6 4.4 4.6 4.7 4.8 4.7 4.5 4.3 4.2 4.2 3.8 3.4 3.2 3.0 3.2 3.1 2.9 2.8 2.9 3.1 4.3 5.6 5.5 5.4 5.7 5.5
8.0 7.6 7.5 7.6 7.8 7.7 6.9 6.8 6.7 6.8 6.4 6.2 5.7 5.5 5.6 5.5 5.1 4.5 4.4 4.3 4.3 4.7 4.7 4.8 4.7 4.6 4.3 4.1 3.7 3.4 3.1 3.0 3.2 3.1 2.8 2.6 2.8 3.2 4.1 5.5 5.3 5.4 6.0 5.9
8.6 8.4 8.2 8.0 8.2 8.2 7.6 7.4 7.7 7.3 7.1 6.8 6.3 6.1 5.7 5.3 5.0 5.2 5.0 4.8 4.6 4.7 4.8 4.8 4.8 4.8 4.4 4.2 3.8 3.3 3.1 2.9 3.0 3.0 2.8 2.5 2.7 3.0 3.7 5.0 5.1 5.3 5.2 5.6
8.2 8.3 8.2 8.2 8.2 8.0 7.6 7.5 7.0 6.6 7.5 7.2 7.5 7.3 6.6 6.1 5.8 5.2 4.9 4.9 4.9 5.0 4.9 4.9 4.8 4.8 4.6 4.3 3.9 3.3 3.2 2.9 2.9 2.8 3.0 2.7 2.8 2.9 3.1 4.0 4.8 4.9 5.0 5.2
8.5 8.2 7.9 7.9 7.6 7.6 7.7 7.6 7.1 6.9 6.9 7.3 7.3 7.0 6.3 6.1 5.9 5.6 5.3 5.1 5.0 4.9 4.9 4.8 4.8 4.9 4.7 4.4 4.0 3.7 3.5 3.1 3.0 2.7 2.8 3.1 2.6 3.0 3.2 3.7 4.4 4.3 5.0 5.0
8.4 8.1 7.9 7.5 7.6 7.4 7.4 6.9 6.8 6.6 6.6 6.4 6.2 6.4 6.5 6.2 6.3 5.9 5.2 5.1 5.0 4.9 5.0 5.0 4.9 4.9 4.8 4.5 4.1 4.0 3.8 3.4 3.1 2.8 2.7 2.8 3.0 2.7 3.0 3.2 4.0 4.5 4.4 5.0
7.7 7.7 7.4 7.3 7.1 7.2 7.3 7.2 7.1 7.2 6.5 6.1 6.0 6.3 6.7 6.4 6.5 5.7 5.3 5.0 5.1 5.1 5.0 5.0 5.1 5.0 4.8 4.7 4.2 4.1 3.9 3.7 3.3 3.1 2.8 2.6 2.9 3.1 2.4 2.8 3.2 3.8 4.6 4.7
7.5 7.4 7.0 6.9 6.8 6.7 6.9 7.1 7.1 7.3 6.9 6.2 6.1 6.2 6.0 6.2 6.3 5.9 5.6 5.1 5.1 5.0 5.0 5.2 5.3 5.1 4.9 4.7 4.4 4.2 4.0 3.9 3.7 3.2 3.0 2.8 2.7 2.8 3.1 2.6 2.4 2.8 3.3 4.0
Wind_Speed
2 3 1 6 7 2 3 3 3 5 3 2 9 11 9 14 11 10 9 9 9 9 8 10 8 8 6 4 2 5 4 4 3 2 3 3 3 4 4 9 14 16 16 16
2 1 5 4 4 3 4 4 5 3 4 0 5 12 11 8 12 14 11 10 9 9 10 8 9 8 7 4 4 4 4 4 3 2 3 2 3 3 4 9 11 13 13 13
3 4 3 3 0 3 2 2 4 3 6 10 7 9 8 7 6 9 9 7 7 10 11 10 7 7 6 4 4 2 2 3 3 4 3 3 3 4 3 4 4 10 15 16
4 3 3 3 3 4 4 4 2 5 3 3 1 5 4 4 2 3 7 9 8 8 6 8 7 4 6 4 1 2 2 2 3 5 4 5 4 5 4 6 6 7 15 16
2 1 1 2 3 4 3 2 2 2 3 3 5 2 6 5 7 8 6 6 5 7 8 7 8 7 4 5 4 2 2 2 2 3 4 4 5 5 6 7 10 10 11 15
4 2 4 3 2 2 1 3 4 1 2 3 8 5 4 4 3 6 8 7 7 6 6 5 4 7 4 5 5 3 1 2 2 2 4 5 6 8 8 9 9 9 8 8
5 3 4 2 3 4 1 2 2 2 1 4 4 1 8 2 1 10 12 9 7 5 4 4 6 5 6 6 5 3 2 3 3 2 4 4 7 8 11 11 9 11 9 9
2 4 1 3 2 1 3 2 2 4 3 2 2 6 5 2 5 8 7 7 7 5 5 5 5 4 5 5 5 4 3 4 3 3 4 5 7 6 7 10 10 9 10 11
3 2 2 3 2 2 3 2 1 4 1 1 4 6 3 3 2 3 6 6 6 6 6 6 5 5 4 5 5 5 4 4 4 5 4 5 6 8 10 13 12 10 13 12
1 4 2 4 2 4 2 0 1 2 3 4 3 3 3 5 7 5 4 7 5 4 4 4 4 4 4 4 4 3 3 4 5 5 3 6 5 9 11 11 14 15 15 16
4 3 1 4 6 6 2 1 1 2 2 2 3 4 2 5 10 10 8 6 6 5 5 5 5 4 5 4 4 5 4 4 4 4 4 5 7 10 11 11 13 15 17 17
2 1 3 4 2 1 1 0 4 2 2 1 2 6 4 4 5 6 5 5 4 4 6 5 5 5 5 5 4 4 2 3 5 4 4 6 8 10 10 12 14 15 17 17
2 2 4 3 4 2 2 4 2 3 1 5 2 4 3 2 4 1 2 3 5 5 4 5 4 5 5 4 4 3 3 5 5 3 4 6 9 8 10 12 14 15 17 17
1 4 7 9 6 2 4 5 5 5 3 4 10 8 3 2 3 2 4 5 8 7 6 5 4 5 5 5 4 4 4 4 5 3 4 7 9 8 11 13 14 15 16 15
3 5 10 14 15 14 15 14 10 12 15 8 3 9 10 4 3 6 4 4 5 4 6 6 5 5 5 5 4 4 4 4 4 4 4 7 8 9 11 12 14 15 14 14
4 5 7 7 12 15 20 16 20 17 14 14 13 22 16 11 2 3 4 3 6 6 5 5 6 6 7 7 6 5 5 4 3 4 5 7 7 9 11 12 14 15 14 14
3 2 2 4 7 12 6 6 5 8 7 8 7 11 5 2 5 3 3 4 7 6 6 6 6 6 6 7 6 6 5 3 5 4 5 6 7 9 11 12 14 15 14 14
5 4 2 3 4 3 3 15 9 14 9 6 6 3 2 2 3 5 6 6 7 6 5 5 4 4 6 7 6 5 4 5 6 5 4 6 7 7 10 11 12 13 12 11
0 2 3 2 3 10 10 11 9 9 5 16 14 5 6 6 6 5 5 3 4 4 4 3 3 4 5 7 7 7 6 5 4 5 4 6 6 7 8 11 13 13 12 10
4 3 1 2 3 3 3 15 13 7 3 9 9 7 4 5 3 1 5 8 6 5 5 4 4 3 3 5 7 6 5 4 2 4 5 4 4 5 7 10 12 12 11 11
6 1 3 5 3 3 12 18 15 5 6 22 13 7 7 4 5 7 7 7 5 3 5 8 5 5 6 4 6 6 5 4 4 3 6 5 5 5 7 8 7 9 11 11
4 3 3 3 3 2 14 6 8 8 18 20 19 13 12 11 12 7 8 7 6 5 4 6 6 5 5 6 6 6 5 6 4 3 4 6 6 5 6 8 8 10 11 12
2 2 2 1 6 17 10 14 4 14 17 20 15 7 5 11 13 9 8 8 6 5 5 5 6 5 5 6 6 5 4 6 4 2 2 5 6 5 6 7 8 8 9 10
2 2 2 5 6 6 17 8 10 15 18 16 18 15 8 12 12 8 11 10 6 5 5 4 5 5 5 6 6 5 5 6 4 2 1 2 5 6 5 5 6 6 8 9
2 5 5 6 6 15 4 11 13 17 17 15 11 11 13 8 12 10 12 7 5 4 4 3 3 4 4 4 6 5 6 6 4 3 1 3 2 5 5 3 3 5 8 13
1 5 6 10 12 11 15 18 15 16 16 14 14 8 8 11 11 10 6 4 2 4 2 3 3 2 2 2 5 5 5 5 4 3 3 1 2 3 4 4 4 10 14 20
Wind_Direction
144 271 330 36 45 94 294 307 326 120 87 306 231 251 237 188 193 203 207 195 177 177 166 133 142 150 165 148 87 61 40 20 15 355 331 343 324 322 322 327 320 315 310 310
260 71 52 47 45 34 352 345 302 66 98 111 289 280 271 217 201 195 191 201 193 166 136 141 153 167 174 137 84 57 38 13 1 349 318 284 291 285 289 288 287 290 300 309
23 54 19 353 233 348 147 320 339 353 323 229 288 273 216 227 192 194 199 179 218 165 159 166 167 173 142 139 88 42 38 4 348 330 317 316 318 320 323 322 334 313 304 302
68 49 338 313 67 345 267 48 15 338 359 261 181 285 248 161 174 167 173 172 178 131 116 129 157 165 158 149 178 124 18 348 316 344 324 333 314 309 309 311 301 293 287 283
69 36 337 263 43 330 53 333 353 36 295 6 188 264 258 121 206 199 205 168 158 159 160 167 162 171 155 151 179 174 214 277 313 326 332 324 315 306 308 301 294 289 284 277
83 79 37 42 86 27 26 245 201 157 244 255 211 198 259 187 226 148 177 170 156 144 151 174 167 150 172 168 165 194 233 279 325 332 316 309 303 305 301 292 290 287 284 279
157 103 115 351 223 164 221 244 217 201 191 239 346 212 257 221 320 165 155 145 154 150 166 191 209 202 158 173 177 175 217 264 271 286 292 289 287 287 285 288 289 289 287 282
337 300 129 320 78 80 93 15 312 291 336 345 81 233 261 41 33 104 114 131 142 174 198 211 220 204 164 169 171 173 211 259 271 277 270 272 277 281 284 282 282 283 284 283
354 259 137 45 30 6 151 200 55 296 142 27 232 276 42 99 60 86 140 153 195 206 205 207 213 197 173 165 175 187 214 254 268 265 269 273 272 282 280 282 282 282 280 277
251 303 201 125 122 9 17 205 141 225 274 266 279 274 275 198 191 199 195 206 208 200 199 220 216 208 188 169 172 179 210 236 248 263 262 273 277 282 281 283 285 283 279 278
158 126 205 128 199 173 115 217 206 313 230 277 307 263 317 212 186 185 202 197 190 192 228 225 210 184 173 161 178 211 219 247 279 279 267 275 284 281 283 285 288 286 284 282
156 193 268 221 295 18 46 76 177 217 214 221 150 278 346 25 62 124 148 154 171 186 233 225 207 186 178 192 195 200 224 244 254 257 271 283 280 282 284 290 291 289 287 282
156 249 306 317 5 352 223 206 235 76 5 206 208 265 314 65 44 65 158 265 254 247 246 230 205 204 188 196 199 206 233 247 258 279 280 289 281 281 289 294 296 296 288 282
72 241 224 250 268 119 183 189 192 157 190 227 226 268 285 255 142 212 252 252 249 241 228 225 223 205 188 190 193 213 243 244 262 279 289 288 285 289 296 301 301 300 292 294
217 243 239 261 280 288 284 277 189 205 217 231 267 285 279 300 328 286 252 310 288 270 242 226 220 206 192 184 205 215 229 247 259 279 288 285 286 295 302 304 304 306 301 307
221 261 306 299 287 267 266 267 257 224 224 254 271 279 279 282 200 271 282 278 277 272 259 246 213 194 183 192 201 205 218 237 252 279 285 287 295 303 305 308 311 313 311 320
249 242 250 258 321 330 318 270 296 266 194 179 197 243 258 341 311 317 324 290 277 279 275 260 216 200 183 183 186 196 203 220 259 259 277 291 295 301 309 309 317 319 316 319
259 292 260 297 313 237 99 19 11 347 17 328 254 164 294 319 298 282 244 271 304 303 283 269 224 208 184 165 168 167 175 219 251 266 277 294 292 297 309 314 318 315 314 321
268 154 289 276 284 297 14 17 350 338 337 8 355 62 47 3 323 8 69 22 308 297 289 264 237 219 193 169 168 167 197 217 241 284 292 291 287 301 311 318 319 317 325 326
107 73 85 291 261 304 21 347 319 297 218 16 14 1 348 315 290 210 347 319 280 314 315 268 228 258 208 178 151 164 211 196 190 307 294 276 285 293 308 312 315 316 326 335
313 116 210 266 275 276 2 354 344 1 336 326 317 287 297 279 250 269 303 295 310 288 320 306 247 224 224 200 159 181 211 193 148 288 303 312 306 292 297 307 312 321 337 346
12 311 358 323 281 305 358 350 1 300 301 303 294 280 290 299 298 283 291 290 295 279 287 292 277 227 224 196 166 196 212 153 141 252 307 316 326 324 326 322 325 340 348 360
16 147 219 106 286 301 343 321 284 322 302 309 282 275 292 291 291 277 299 296 284 270 265 271 279 228 213 186 168 199 199 144 157 232 27 323 329 340 339 343 339 352 355 3
334 36 249 351 314 324 316 304 325 323 311 299 287 275 278 280 280 280 296 289 276 248 249 254 291 263 240 179 173 190 157 137 155 125 65 330 334 350 351 7 355 349 7 12
273 313 289 254 298 314 299 320 321 321 323 319 272 266 271 266 272 270 280 264 254 246 248 218 235 275 258 204 168 170 150 141 164 138 121 22 25 335 342 3 356 355 4 27
306 313 321 311 311 305 311 319 318 321 321 325 334 294 265 255 269 276 259 258 236 263 252 239 217 251 269 88 159 153 143 147 161 164 109 73 21 350 359 354 355 15 30 20